Previsão horária em Allende

Hoje, 14 Junho, Segunda-feira

Tempo Temperatura Precipitação Vento Pressão Humidade
00:00 +26°C° 0 mm 2 m/s 722 mmHg 75%
01:00 +25°C° 0 mm 2 m/s 722 mmHg 75%
02:00 +25°C° 0 mm 2 m/s 722 mmHg 76%
03:00 +25°C° 0 mm 2 m/s 722 mmHg 76%
04:00 +24°C° 0 mm 1 m/s 722 mmHg 76%
05:00 +24°C° 0 mm 1 m/s 723 mmHg 78%
06:00 +26°C° 0 mm 2 m/s 723 mmHg 70%
07:00 +29°C° 0 mm 2 m/s 723 mmHg 61%
08:00 +31°C° 0 mm 2 m/s 723 mmHg 52%
09:00 +34°C° 0 mm 2 m/s 723 mmHg 45%
10:00 +35°C° 0 mm 2 m/s 723 mmHg 39%
11:00 +37°C° 0 mm 3 m/s 723 mmHg 33%
12:00 +37°C° 0 mm 3 m/s 722 mmHg 31%
13:00 +38°C° 0 mm 3 m/s 722 mmHg 29%
14:00 +39°C° 0 mm 3 m/s 721 mmHg 27%
15:00 +38°C° 0 mm 4 m/s 721 mmHg 28%
16:00 +37°C° 0 mm 4 m/s 721 mmHg 29%
17:00 +36°C° 0 mm 4 m/s 721 mmHg 31%
18:00 +35°C° 0 mm 3 m/s 721 mmHg 36%
19:00 +32°C° 0 mm 2 m/s 721 mmHg 41%
20:00 +30°C° 0 mm 1 m/s 722 mmHg 46%
21:00 +29°C° 0 mm 2 m/s 722 mmHg 51%
22:00 +27°C° 0 mm 2 m/s 722 mmHg 57%
23:00 +26°C° 0 mm 2 m/s 722 mmHg 63%

Amanhã, 15 Junho, Terça-feira

Tempo Temperatura Precipitação Vento Pressão Humidade
00:00 +26°C° 0 mm 2 m/s 722 mmHg 64%
01:00 +26°C° 0 mm 2 m/s 722 mmHg 66%
02:00 +25°C° 0 mm 1 m/s 721 mmHg 67%
03:00 +25°C° 0 mm 1 m/s 722 mmHg 68%
04:00 +25°C° 0 mm 1 m/s 722 mmHg 69%
05:00 +25°C° 0 mm 1 m/s 722 mmHg 69%
06:00 +27°C° 0 mm 1 m/s 722 mmHg 63%
07:00 +29°C° 0 mm 2 m/s 723 mmHg 56%
08:00 +31°C° 0 mm 2 m/s 723 mmHg 50%
09:00 +32°C° 0 mm 2 m/s 723 mmHg 46%
10:00 +35°C° 0 mm 3 m/s 723 mmHg 42%
11:00 +36°C° 0 mm 3 m/s 723 mmHg 38%
12:00 +36°C° 0.1 mm 3 m/s 723 mmHg 37%
13:00 +37°C° 0.1 mm 4 m/s 722 mmHg 35%
14:00 +37°C° 0.1 mm 4 m/s 722 mmHg 34%
15:00 +36°C° 0.1 mm 4 m/s 722 mmHg 39%
16:00 +35°C° 0.1 mm 4 m/s 722 mmHg 44%
17:00 +33°C° 0.1 mm 4 m/s 722 mmHg 49%
18:00 +30°C° 1.5 mm 3 m/s 722 mmHg 60%
19:00 +28°C° 1.5 mm 2 m/s 723 mmHg 71%
20:00 +26°C° 1.5 mm 2 m/s 723 mmHg 82%
21:00 +26°C° 0.3 mm 2 m/s 723 mmHg 82%
22:00 +26°C° 0.3 mm 1 m/s 723 mmHg 82%
23:00 +25°C° 0.3 mm 1 m/s 723 mmHg 82%

Depois de amanhã, 16 Junho, Quarta-feira

Tempo Temperatura Precipitação Vento Pressão Humidade
00:00 +25°C° 0 mm 1 m/s 723 mmHg 82%
01:00 +25°C° 0 mm 1 m/s 722 mmHg 82%
02:00 +25°C° 0 mm 1 m/s 722 mmHg 82%
03:00 +24°C° 0 mm 1 m/s 722 mmHg 83%
04:00 +24°C° 0 mm 1 m/s 722 mmHg 83%
05:00 +24°C° 0 mm 1 m/s 722 mmHg 83%
06:00 +26°C° 0 mm 1 m/s 723 mmHg 76%
07:00 +28°C° 0 mm 1 m/s 723 mmHg 69%
08:00 +29°C° 0 mm 1 m/s 723 mmHg 62%
09:00 +31°C° 0 mm 2 m/s 723 mmHg 55%
10:00 +32°C° 0 mm 2 m/s 723 mmHg 49%
11:00 +35°C° 0 mm 3 m/s 723 mmHg 42%
12:00 +35°C° 0.1 mm 3 m/s 723 mmHg 41%
13:00 +35°C° 0.1 mm 3 m/s 723 mmHg 40%
14:00 +35°C° 0.1 mm 3 m/s 722 mmHg 38%
15:00 +35°C° 0 mm 3 m/s 722 mmHg 41%
16:00 +34°C° 0 mm 2 m/s 722 mmHg 44%
17:00 +32°C° 0 mm 2 m/s 722 mmHg 46%
18:00 +31°C° 0.3 mm 2 m/s 722 mmHg 53%
19:00 +29°C° 0.3 mm 2 m/s 723 mmHg 59%
20:00 +27°C° 0.3 mm 2 m/s 723 mmHg 66%
21:00 +27°C° 0.7 mm 1 m/s 723 mmHg 71%
22:00 +26°C° 0.7 mm 1 m/s 723 mmHg 76%
23:00 +25°C° 0.7 mm 1 m/s 723 mmHg 82%

17 Junho, Quinta-feira

Tempo Temperatura Precipitação Vento Pressão Humidade
00:00 +24°C° 0.1 mm 1 m/s 723 mmHg 83%
01:00 +24°C° 0.1 mm 1 m/s 723 mmHg 84%
02:00 +24°C° 0.1 mm 1 m/s 722 mmHg 85%
03:00 +24°C° 0 mm 1 m/s 722 mmHg 85%
04:00 +23°C° 0 mm 1 m/s 722 mmHg 85%
05:00 +23°C° 0 mm 1 m/s 722 mmHg 86%
06:00 +25°C° 0 mm 1 m/s 723 mmHg 80%
07:00 +26°C° 0 mm 1 m/s 723 mmHg 74%
08:00 +28°C° 0 mm 2 m/s 724 mmHg 69%
09:00 +29°C° 0 mm 2 m/s 724 mmHg 61%
10:00 +31°C° 0 mm 2 m/s 723 mmHg 54%
11:00 +33°C° 0 mm 3 m/s 723 mmHg 47%
12:00 +33°C° 0.2 mm 3 m/s 723 mmHg 47%
13:00 +33°C° 0.2 mm 3 m/s 722 mmHg 48%
14:00 +33°C° 0.2 mm 3 m/s 722 mmHg 48%
15:00 +31°C° 0.6 mm 3 m/s 722 mmHg 56%
16:00 +29°C° 0.6 mm 2 m/s 722 mmHg 64%
17:00 +27°C° 0.6 mm 2 m/s 722 mmHg 72%
18:00 +27°C° 0.7 mm 2 m/s 722 mmHg 77%
19:00 +26°C° 0.7 mm 2 m/s 722 mmHg 82%
20:00 +25°C° 0.7 mm 2 m/s 722 mmHg 87%
21:00 +25°C° 0.6 mm 1 m/s 722 mmHg 86%
22:00 +25°C° 0.6 mm 1 m/s 723 mmHg 85%
23:00 +25°C° 0.6 mm 1 m/s 723 mmHg 84%

18 Junho, Sexta-feira

Tempo Temperatura Precipitação Vento Pressão Humidade
00:00 +24°C° 0 mm 1 m/s 722 mmHg 84%
01:00 +24°C° 0 mm 1 m/s 722 mmHg 84%
02:00 +23°C° 0 mm 1 m/s 721 mmHg 85%
03:00 +23°C° 0 mm 1 m/s 721 mmHg 84%
04:00 +23°C° 0 mm 1 m/s 721 mmHg 84%
05:00 +23°C° 0 mm 1 m/s 721 mmHg 83%
06:00 +25°C° 0 mm 1 m/s 721 mmHg 75%
07:00 +27°C° 0 mm 1 m/s 722 mmHg 67%
08:00 +29°C° 0 mm 2 m/s 722 mmHg 60%
09:00 +30°C° 0 mm 2 m/s 722 mmHg 53%
10:00 +31°C° 0 mm 2 m/s 722 mmHg 46%
11:00 +34°C° 0 mm 2 m/s 722 mmHg 39%
12:00 +34°C° 0 mm 2 m/s 721 mmHg 37%
13:00 +35°C° 0 mm 2 m/s 720 mmHg 35%
14:00 +35°C° 0 mm 2 m/s 720 mmHg 33%
15:00 +35°C° 0 mm 2 m/s 720 mmHg 34%
16:00 +35°C° 0 mm 2 m/s 720 mmHg 34%
17:00 +34°C° 0 mm 2 m/s 719 mmHg 35%
18:00 +31°C° 0 mm 2 m/s 719 mmHg 40%
19:00 +29°C° 0 mm 2 m/s 720 mmHg 45%
20:00 +27°C° 0 mm 1 m/s 720 mmHg 51%
21:00 +27°C° 0 mm 1 m/s 720 mmHg 55%
22:00 +26°C° 0 mm 1 m/s 720 mmHg 59%
23:00 +25°C° 0 mm 1 m/s 721 mmHg 63%

19 Junho, Sábado

Tempo Temperatura Precipitação Vento Pressão Humidade
00:00 +25°C° 0 mm 1 m/s 720 mmHg 64%
01:00 +25°C° 0 mm 1 m/s 720 mmHg 65%
02:00 +25°C° 0 mm 1 m/s 719 mmHg 66%
03:00 +25°C° 0 mm 1 m/s 719 mmHg 66%
04:00 +25°C° 0 mm 2 m/s 720 mmHg 66%
05:00 +25°C° 0 mm 2 m/s 720 mmHg 66%
06:00 +27°C° 0 mm 1 m/s 720 mmHg 61%
07:00 +29°C° 0 mm 1 m/s 721 mmHg 56%
08:00 +31°C° 0 mm 1 m/s 721 mmHg 51%
09:00 +32°C° 0 mm 1 m/s 721 mmHg 46%
10:00 +35°C° 0 mm 2 m/s 721 mmHg 41%
11:00 +36°C° 0 mm 2 m/s 720 mmHg 37%
12:00 +37°C° 0.1 mm 2 m/s 720 mmHg 36%
13:00 +37°C° 0.1 mm 2 m/s 720 mmHg 36%
14:00 +37°C° 0.1 mm 2 m/s 719 mmHg 36%
15:00 +37°C° 0 mm 2 m/s 719 mmHg 36%
16:00 +37°C° 0 mm 2 m/s 719 mmHg 37%
17:00 +37°C° 0 mm 2 m/s 719 mmHg 38%
18:00 +35°C° 0 mm 2 m/s 719 mmHg 43%
19:00 +32°C° 0 mm 2 m/s 719 mmHg 48%
20:00 +30°C° 0 mm 2 m/s 719 mmHg 53%
21:00 +29°C° 0 mm 2 m/s 719 mmHg 55%
22:00 +29°C° 0 mm 2 m/s 720 mmHg 58%
23:00 +28°C° 0 mm 2 m/s 720 mmHg 61%
Mostrar mais